Time,TemperatureF,DewpointF,PressureIn,WindDirection,WindDirectionDegrees,WindSpeedMPH,WindSpeedGustMPH,Humidity,HourlyPrecipIn,Conditions,Clouds,dailyrainin,SoftwareType,DateUTC
2013-05-23 00:01:00,41.9,39.5,29.99,NNE,23,0.0,11.0,91,0.00,,---,0.02,VWS V14.00,2013-05-23 05:01:00,
2013-05-23 00:06:00,41.8,39.1,29.99,NE,41,3.0,12.0,90,0.00,,---,0.00,VWS V14.00,2013-05-23 05:06:00,
2013-05-23 00:11:00,41.6,39.2,29.99,North,360,2.0,14.0,91,0.00,,---,0.00,VWS V14.00,2013-05-23 05:11:00,
2013-05-23 00:16:00,41.5,39.1,29.99,North,355,1.0,14.0,91,0.00,,---,0.00,VWS V14.00,2013-05-23 05:16:00,
2013-05-23 00:21:00,41.4,39.0,29.99,NE,38,0.0,9.0,91,0.00,,---,0.00,VWS V14.00,2013-05-23 05:21:00,
2013-05-23 00:26:00,41.4,39.0,30.00,NNE,26,5.0,13.0,91,0.00,,---,0.00,VWS V14.00,2013-05-23 05:26:00,
2013-05-23 00:31:00,41.2,38.8,30.00,North,5,1.0,13.0,91,0.00,,---,0.00,VWS V14.00,2013-05-23 05:31:00,
2013-05-23 00:36:00,41.1,38.7,30.00,NNE,24,3.0,8.0,91,0.00,,---,0.00,VWS V14.00,2013-05-23 05:36:00,
2013-05-23 00:41:00,41.1,38.7,30.00,NNE,30,0.0,8.0,91,0.00,,---,0.00,VWS V14.00,2013-05-23 05:41:00,
2013-05-23 00:46:00,41.0,38.6,30.00,NNE,18,0.0,8.0,91,0.00,,---,0.00,VWS V14.00,2013-05-23 05:46:00,
2013-05-23 00:51:00,40.9,38.5,30.00,ENE,63,0.0,7.0,91,0.00,,---,0.00,VWS V14.00,2013-05-23 05:51:00,
2013-05-23 00:56:00,40.8,38.4,30.00,NNW,341,0.0,7.0,91,0.00,,---,0.00,VWS V14.00,2013-05-23 05:56:00,
2013-05-23 01:01:00,40.6,38.2,30.00,NNE,28,3.0,9.0,91,0.00,,---,0.00,VWS V14.00,2013-05-23 06:01:00,
2013-05-23 01:06:00,40.5,38.1,30.00,NE,43,5.0,6.0,91,0.00,,---,0.00,VWS V14.00,2013-05-23 06:06:00,
2013-05-23 01:11:00,40.4,38.0,30.01,NNE,16,2.0,10.0,91,0.00,,---,0.00,VWS V14.00,2013-05-23 06:11:00,
2013-05-23 01:16:00,40.3,37.9,30.01,NNW,331,2.0,10.0,91,0.00,,---,0.00,VWS V14.00,2013-05-23 06:16:00,
2013-05-23 01:21:00,40.3,38.2,30.01,North,9,7.0,10.0,92,0.00,,---,0.00,VWS V14.00,2013-05-23 06:21:00,
2013-05-23 01:26:00,40.2,38.1,30.01,North,5,2.0,10.0,92,0.00,,---,0.00,VWS V14.00,2013-05-23 06:26:00,
2013-05-23 01:31:00,40.1,38.0,30.01,NNE,19,4.0,13.0,92,0.00,,---,0.00,VWS V14.00,2013-05-23 06:31:00,
2013-05-23 01:36:00,40.0,37.9,30.01,NNW,332,4.0,10.0,92,0.00,,---,0.00,VWS V14.00,2013-05-23 06:36:00,
2013-05-23 01:41:00,39.9,37.8,30.01,West,273,0.0,10.0,92,0.00,,---,0.00,VWS V14.00,2013-05-23 06:41:00,
2013-05-23 01:46:00,39.8,37.7,30.01,North,360,0.0,10.0,92,0.00,,---,0.00,VWS V14.00,2013-05-23 06:46:00,
2013-05-23 01:51:00,39.8,37.7,30.02,North,9,0.0,3.0,92,0.00,,---,0.00,VWS V14.00,2013-05-23 06:51:00,
2013-05-23 01:56:00,39.7,37.6,30.02,North,5,2.0,11.0,92,0.00,,---,0.00,VWS V14.00,2013-05-23 06:56:00,
2013-05-23 02:01:00,39.6,37.5,30.02,ENE,63,12.0,12.0,92,0.00,,---,0.00,VWS V14.00,2013-05-23 07:01:00,
2013-05-23 02:06:00,39.6,37.5,30.02,NE,55,3.0,12.0,92,0.00,,---,0.00,VWS V14.00,2013-05-23 07:06:00,
2013-05-23 02:11:00,39.5,37.4,30.02,NNW,340,1.0,12.0,92,0.00,,---,0.00,VWS V14.00,2013-05-23 07:11:00,
2013-05-23 02:16:00,39.5,37.4,30.02,West,274,3.0,12.0,92,0.00,,---,0.00,VWS V14.00,2013-05-23 07:16:00,
2013-05-23 02:21:00,39.4,37.3,30.03,North,355,0.0,9.0,92,0.00,,---,0.00,VWS V14.00,2013-05-23 07:21:00,
2013-05-23 02:25:00,39.3,37.2,30.03,NNE,19,6.0,14.0,92,0.00,,---,0.00,VWS V14.00,2013-05-23 07:25:00,
2013-05-23 02:30:00,39.1,37.0,30.03,NNE,30,3.0,14.0,92,0.00,,---,0.00,VWS V14.00,2013-05-23 07:30:00,
2013-05-23 02:35:00,39.1,37.0,30.03,NE,50,5.0,10.0,92,0.00,,---,0.00,VWS V14.00,2013-05-23 07:35:00,
2013-05-23 02:40:00,39.1,36.7,30.03,NE,48,3.0,12.0,91,0.00,,---,0.00,VWS V14.00,2013-05-23 07:40:00,
2013-05-23 02:45:00,39.0,36.3,30.04,NNE,17,14.0,14.0,90,0.00,,---,0.00,VWS V14.00,2013-05-23 07:45:00,
2013-05-23 02:51:00,39.0,36.3,30.04,NNW,344,3.0,14.0,90,0.00,,---,0.00,VWS V14.00,2013-05-23 07:51:00,
2013-05-23 02:56:00,38.9,35.9,30.04,NW,304,0.0,14.0,89,0.00,,---,0.00,VWS V14.00,2013-05-23 07:56:00,
2013-05-23 03:01:00,38.9,35.9,30.04,ENE,76,4.0,14.0,89,0.00,,---,0.00,VWS V14.00,2013-05-23 08:01:00,
2013-05-23 03:06:00,38.8,35.6,30.05,NE,46,7.0,14.0,88,0.00,,---,0.00,VWS V14.00,2013-05-23 08:06:00,
2013-05-23 03:11:00,38.7,35.5,30.04,ENE,61,1.0,14.0,88,0.00,,---,0.00,VWS V14.00,2013-05-23 08:11:00,
2013-05-23 03:16:00,38.6,35.1,30.05,NE,42,3.0,14.0,87,0.00,,---,0.00,VWS V14.00,2013-05-23 08:16:00,
2013-05-23 03:21:00,38.5,35.3,30.05,NE,39,3.0,10.0,88,0.00,,---,0.00,VWS V14.00,2013-05-23 08:21:00,
2013-05-23 03:26:00,38.4,34.9,30.05,NE,38,5.0,12.0,87,0.00,,---,0.00,VWS V14.00,2013-05-23 08:26:00,
2013-05-23 03:31:00,38.3,34.8,30.05,NNE,28,6.0,12.0,87,0.00,,---,0.00,VWS V14.00,2013-05-23 08:31:00,
2013-05-23 03:36:00,38.2,34.7,30.06,NE,40,3.0,10.0,87,0.00,,---,0.00,VWS V14.00,2013-05-23 08:36:00,
2013-05-23 03:41:00,38.1,34.6,30.06,NE,34,2.0,12.0,87,0.00,,---,0.00,VWS V14.00,2013-05-23 08:41:00,
2013-05-23 03:46:00,38.0,34.8,30.06,NE,49,2.0,12.0,88,0.00,,---,0.00,VWS V14.00,2013-05-23 08:46:00,
2013-05-23 03:51:00,37.9,34.7,30.06,East,80,0.0,3.0,88,0.00,,---,0.00,VWS V14.00,2013-05-23 08:51:00,
2013-05-23 03:56:00,37.8,34.9,30.06,North,360,2.0,12.0,89,0.00,,---,0.00,VWS V14.00,2013-05-23 08:56:00,
2013-05-23 04:01:00,37.5,34.6,30.06,NNW,342,5.0,12.0,89,0.00,,---,0.00,VWS V14.00,2013-05-23 09:01:00,
2013-05-23 04:06:00,37.3,34.4,30.06,WNW,299,0.0,9.0,89,0.00,,---,0.01,VWS V14.00,2013-05-23 09:06:00,
2013-05-23 04:11:00,37.1,34.2,30.07,NNW,333,0.0,9.0,89,0.00,,---,0.01,VWS V14.00,2013-05-23 09:11:00,
2013-05-23 04:16:00,36.9,34.2,30.07,NE,40,0.0,9.0,90,0.00,,---,0.01,VWS V14.00,2013-05-23 09:16:00,
2013-05-23 04:21:00,36.7,34.0,30.07,NNE,13,4.0,10.0,90,0.00,,---,0.01,VWS V14.00,2013-05-23 09:21:00,
2013-05-23 04:26:00,36.5,33.8,30.07,North,360,0.0,10.0,90,0.00,,---,0.01,VWS V14.00,2013-05-23 09:26:00,
2013-05-23 04:31:00,36.4,33.8,30.07,NE,53,0.0,10.0,90,0.00,,---,0.01,VWS V14.00,2013-05-23 09:31:00,
2013-05-23 04:36:00,36.2,33.6,30.08,NNW,339,0.0,10.0,90,0.00,,---,0.01,VWS V14.00,2013-05-23 09:36:00,
2013-05-23 04:41:00,36.1,33.5,30.08,NE,38,0.0,10.0,90,0.00,,---,0.01,VWS V14.00,2013-05-23 09:41:00,
2013-05-23 04:46:00,36.0,33.4,30.08,NE,45,0.0,10.0,90,0.00,,---,0.01,VWS V14.00,2013-05-23 09:46:00,
2013-05-23 04:51:00,35.9,33.3,30.09,North,11,0.0,6.0,90,0.00,,---,0.01,VWS V14.00,2013-05-23 09:51:00,
2013-05-23 04:56:00,35.8,33.2,30.09,West,276,1.0,12.0,90,0.00,,---,0.01,VWS V14.00,2013-05-23 09:56:00,
2013-05-23 05:01:00,35.7,33.1,30.09,North,355,0.0,12.0,90,0.00,,---,0.01,VWS V14.00,2013-05-23 10:01:00,
2013-05-23 05:06:00,35.6,33.0,30.10,NE,47,3.0,6.0,90,0.00,,---,0.01,VWS V14.00,2013-05-23 10:06:00,
2013-05-23 05:11:00,35.6,33.0,30.10,ENE,77,0.0,6.0,90,0.00,,---,0.01,VWS V14.00,2013-05-23 10:11:00,
2013-05-23 05:16:00,35.5,32.9,30.10,NE,49,4.0,6.0,90,0.00,,---,0.01,VWS V14.00,2013-05-23 10:16:00,
2013-05-23 05:21:00,35.5,32.9,30.10,ENE,66,3.0,7.0,90,0.00,,---,0.01,VWS V14.00,2013-05-23 10:21:00,
2013-05-23 05:26:00,35.5,32.9,30.10,NW,319,0.0,7.0,90,0.00,,---,0.01,VWS V14.00,2013-05-23 10:26:00,
2013-05-23 05:31:00,35.5,32.9,30.11,SSE,156,2.0,8.0,90,0.00,,---,0.01,VWS V14.00,2013-05-23 10:31:00,
2013-05-23 05:36:00,35.6,32.7,30.11,NNE,23,4.0,6.0,89,0.00,,---,0.01,VWS V14.00,2013-05-23 10:36:00,
2013-05-23 05:41:00,35.6,32.7,30.11,NNE,21,0.0,7.0,89,0.00,,---,0.01,VWS V14.00,2013-05-23 10:41:00,
2013-05-23 05:46:00,35.7,32.8,30.11,NE,37,2.0,12.0,89,0.00,,---,0.01,VWS V14.00,2013-05-23 10:46:00,
2013-05-23 05:51:00,35.7,32.8,30.12,NNE,28,3.0,7.0,89,0.00,,---,0.01,VWS V14.00,2013-05-23 10:51:00,
2013-05-23 05:55:00,35.7,32.5,30.12,NE,36,1.0,10.0,88,0.00,,---,0.01,VWS V14.00,2013-05-23 10:55:00,
2013-05-23 06:00:00,35.7,32.5,30.12,NE,42,1.0,10.0,88,0.00,,---,0.01,VWS V14.00,2013-05-23 11:00:00,
2013-05-23 06:05:00,35.8,32.6,30.12,NNW,345,4.0,5.0,88,0.00,,---,0.01,VWS V14.00,2013-05-23 11:05:00,
2013-05-23 06:10:00,35.8,32.6,30.13,East,91,4.0,12.0,88,0.00,,---,0.01,VWS V14.00,2013-05-23 11:10:00,
2013-05-23 06:15:00,35.7,32.5,30.13,NNW,336,1.0,12.0,88,0.00,,---,0.01,VWS V14.00,2013-05-23 11:15:00,
2013-05-23 06:20:00,35.7,32.5,30.13,ENE,76,4.0,8.0,88,0.00,,---,0.01,VWS V14.00,2013-05-23 11:20:00,
2013-05-23 06:25:00,35.7,32.5,30.13,North,5,1.0,13.0,88,0.00,,---,0.01,VWS V14.00,2013-05-23 11:25:00,
2013-05-23 06:30:00,35.6,32.1,30.13,NW,307,2.0,13.0,87,0.00,,---,0.01,VWS V14.00,2013-05-23 11:30:00,
2013-05-23 06:36:00,35.6,32.1,30.14,NNE,17,2.0,3.0,87,0.00,,---,0.01,VWS V14.00,2013-05-23 11:36:00,
2013-05-23 06:41:00,35.5,32.0,30.14,NNW,343,3.0,10.0,87,0.00,,---,0.01,VWS V14.00,2013-05-23 11:41:00,
2013-05-23 06:46:00,35.4,31.9,30.15,SW,232,0.0,10.0,87,0.00,,---,0.01,VWS V14.00,2013-05-23 11:46:00,
2013-05-23 06:51:00,35.4,31.9,30.15,NNW,332,4.0,9.0,87,0.00,,---,0.01,VWS V14.00,2013-05-23 11:51:00,
2013-05-23 06:56:00,35.3,31.5,30.15,NE,36,3.0,18.0,86,0.00,,---,0.01,VWS V14.00,2013-05-23 11:56:00,
2013-05-23 07:01:00,35.2,31.4,30.16,NNE,25,1.0,18.0,86,0.00,,---,0.01,VWS V14.00,2013-05-23 12:01:00,
2013-05-23 07:06:00,35.2,31.7,30.16,ENE,59,1.0,7.0,87,0.00,,---,0.01,VWS V14.00,2013-05-23 12:06:00,
2013-05-23 07:11:00,35.3,31.5,30.16,NNW,337,0.0,10.0,86,0.00,,---,0.01,VWS V14.00,2013-05-23 12:11:00,
2013-05-23 07:16:00,35.3,31.5,30.16,NNE,31,5.0,14.0,86,0.00,,---,0.01,VWS V14.00,2013-05-23 12:16:00,
2013-05-23 07:21:00,35.2,30.9,30.16,North,349,0.0,15.0,84,0.00,,---,0.01,VWS V14.00,2013-05-23 12:21:00,
2013-05-23 07:26:00,35.2,31.4,30.17,East,84,1.0,15.0,86,0.00,,---,0.01,VWS V14.00,2013-05-23 12:26:00,
2013-05-23 07:31:00,35.3,31.5,30.17,NNE,15,3.0,15.0,86,0.00,,---,0.01,VWS V14.00,2013-05-23 12:31:00,
2013-05-23 07:36:00,35.4,31.1,30.17,ENE,75,3.0,14.0,84,0.00,,---,0.01,VWS V14.00,2013-05-23 12:36:00,
2013-05-23 07:41:00,35.3,31.0,30.17,NNW,332,0.0,14.0,84,0.00,,---,0.01,VWS V14.00,2013-05-23 12:41:00,
2013-05-23 07:46:00,35.2,30.6,30.18,ENE,69,14.0,14.0,83,0.00,,---,0.01,VWS V14.00,2013-05-23 12:46:00,
2013-05-23 07:51:00,35.0,30.1,30.18,NNE,33,2.0,19.0,82,0.00,,---,0.01,VWS V14.00,2013-05-23 12:51:00,
2013-05-23 07:56:00,35.0,30.4,30.18,WNW,296,3.0,19.0,83,0.00,,---,0.01,VWS V14.00,2013-05-23 12:56:00,
2013-05-23 08:01:00,35.2,30.6,30.18,NNE,27,7.0,19.0,83,0.00,,---,0.01,VWS V14.00,2013-05-23 13:01:00,
2013-05-23 08:06:00,35.6,31.0,30.19,North,10,1.0,12.0,83,0.00,,---,0.01,VWS V14.00,2013-05-23 13:06:00,
2013-05-23 08:11:00,35.9,31.2,30.19,NNW,335,9.0,15.0,83,0.00,,---,0.01,VWS V14.00,2013-05-23 13:11:00,
2013-05-23 08:16:00,36.2,31.5,30.18,North,5,0.0,15.0,83,0.00,,---,0.01,VWS V14.00,2013-05-23 13:16:00,
2013-05-23 08:21:00,36.8,32.1,30.19,NE,44,6.0,9.0,83,0.00,,---,0.01,VWS V14.00,2013-05-23 13:21:00,
2013-05-23 08:26:00,37.3,32.0,30.19,NNE,20,0.0,12.0,81,0.00,,---,0.01,VWS V14.00,2013-05-23 13:26:00,
2013-05-23 08:31:00,37.7,32.7,30.19,NNE,19,0.0,12.0,82,0.00,,---,0.01,VWS V14.00,2013-05-23 13:31:00,
2013-05-23 08:36:00,38.4,33.7,30.19,NE,40,2.0,4.0,83,0.00,,---,0.01,VWS V14.00,2013-05-23 13:36:00,
2013-05-23 08:41:00,38.9,33.0,30.20,North,360,4.0,11.0,79,0.00,,---,0.01,VWS V14.00,2013-05-23 13:41:00,
2013-05-23 08:46:00,38.8,32.2,30.20,North,9,6.0,12.0,77,0.00,,---,0.01,VWS V14.00,2013-05-23 13:46:00,
2013-05-23 08:51:00,38.3,31.4,30.21,NW,304,5.0,12.0,76,0.00,,---,0.01,VWS V14.00,2013-05-23 13:51:00,
2013-05-23 08:56:00,37.7,31.1,30.21,North,10,10.0,15.0,77,0.00,,---,0.01,VWS V14.00,2013-05-23 13:56:00,
2013-05-23 09:01:00,37.0,31.1,30.22,NNE,30,4.0,16.0,79,0.00,,---,0.01,VWS V14.00,2013-05-23 14:01:00,
2013-05-23 09:06:00,37.2,31.3,30.22,NNE,31,7.0,14.0,79,0.00,,---,0.01,VWS V14.00,2013-05-23 14:06:00,
2013-05-23 09:11:00,37.3,31.1,30.22,NE,36,0.0,14.0,78,0.00,,---,0.01,VWS V14.00,2013-05-23 14:11:00,
2013-05-23 09:16:00,37.7,31.8,30.23,West,280,2.0,14.0,79,0.00,,---,0.01,VWS V14.00,2013-05-23 14:16:00,
2013-05-23 09:21:00,37.6,31.7,30.23,ENE,63,9.0,9.0,79,0.00,,---,0.01,VWS V14.00,2013-05-23 14:21:00,
2013-05-23 09:26:00,37.4,32.1,30.23,WNW,303,2.0,12.0,81,0.00,,---,0.01,VWS V14.00,2013-05-23 14:26:00,
2013-05-23 09:31:00,37.4,32.1,30.23,NW,305,3.0,12.0,81,0.00,,---,0.01,VWS V14.00,2013-05-23 14:31:00,
2013-05-23 09:36:00,37.2,31.6,30.23,NW,306,0.0,11.0,80,0.00,,---,0.01,VWS V14.00,2013-05-23 14:36:00,
2013-05-23 09:41:00,37.5,32.2,30.23,ENE,64,4.0,11.0,81,0.00,,---,0.01,VWS V14.00,2013-05-23 14:41:00,
2013-05-23 09:46:00,38.2,32.9,30.23,NW,309,1.0,11.0,81,0.00,,---,0.01,VWS V14.00,2013-05-23 14:46:00,
2013-05-23 09:51:00,38.2,32.3,30.23,NW,315,3.0,6.0,79,0.00,,---,0.01,VWS V14.00,2013-05-23 14:51:00,
2013-05-23 09:56:00,38.0,32.1,30.23,WNW,295,3.0,10.0,79,0.00,,---,0.01,VWS V14.00,2013-05-23 14:56:00,
2013-05-23 10:01:00,38.0,32.1,30.24,East,96,3.0,13.0,79,0.00,,---,0.01,VWS V14.00,2013-05-23 15:01:00,
2013-05-23 10:06:00,38.3,32.4,30.24,WNW,297,5.0,5.0,79,0.00,,---,0.01,VWS V14.00,2013-05-23 15:06:00,
2013-05-23 10:11:00,38.5,32.2,30.24,North,5,2.0,7.0,78,0.00,,---,0.01,VWS V14.00,2013-05-23 15:11:00,
2013-05-23 10:16:00,38.9,32.6,30.24,SW,219,3.0,12.0,78,0.00,,---,0.01,VWS V14.00,2013-05-23 15:16:00,
2013-05-23 10:21:00,39.4,32.8,30.24,WNW,303,1.0,6.0,77,0.00,,---,0.01,VWS V14.00,2013-05-23 15:21:00,
2013-05-23 10:26:00,40.1,33.5,30.24,ENE,60,2.0,6.0,77,0.00,,---,0.01,VWS V14.00,2013-05-23 15:26:00,
2013-05-23 10:31:00,40.5,33.9,30.24,NNW,328,4.0,12.0,77,0.00,,---,0.01,VWS V14.00,2013-05-23 15:31:00,
2013-05-23 10:36:00,40.8,33.8,30.25,NW,306,0.0,7.0,76,0.00,,---,0.01,VWS V14.00,2013-05-23 15:36:00,
2013-05-23 10:42:00,40.8,33.2,30.24,NW,309,4.0,10.0,74,0.00,,---,0.01,VWS V14.00,2013-05-23 15:42:00,
2013-05-23 10:46:00,40.4,32.4,30.24,WSW,246,3.0,11.0,73,0.00,,---,0.01,VWS V14.00,2013-05-23 15:46:00,
2013-05-23 10:52:00,40.2,32.9,30.25,WNW,290,2.0,10.0,75,0.00,,---,0.01,VWS V14.00,2013-05-23 15:52:00,
2013-05-23 10:57:00,40.3,33.7,30.25,NNW,335,0.0,10.0,77,0.00,,---,0.01,VWS V14.00,2013-05-23 15:57:00,
2013-05-23 11:02:00,40.9,33.6,30.25,NW,304,1.0,11.0,75,0.00,,---,0.01,VWS V14.00,2013-05-23 16:02:00,
2013-05-23 11:07:00,40.4,32.1,30.25,East,80,5.0,6.0,72,0.00,,---,0.01,VWS V14.00,2013-05-23 16:07:00,
2013-05-23 11:12:00,40.1,33.5,30.26,WNW,299,0.0,6.0,77,0.00,,---,0.01,VWS V14.00,2013-05-23 16:12:00,
2013-05-23 11:17:00,40.2,31.9,30.26,WNW,293,6.0,8.0,72,0.00,,---,0.01,VWS V14.00,2013-05-23 16:17:00,
2013-05-23 11:22:00,40.4,32.4,30.26,NW,308,2.0,10.0,73,0.00,,---,0.01,VWS V14.00,2013-05-23 16:22:00,
2013-05-23 11:27:00,40.7,33.1,30.26,NNW,345,4.0,10.0,74,0.00,,---,0.01,VWS V14.00,2013-05-23 16:27:00,
2013-05-23 11:32:00,41.3,33.7,30.26,NE,54,6.0,12.0,74,0.00,,---,0.01,VWS V14.00,2013-05-23 16:32:00,
2013-05-23 11:37:00,41.5,33.8,30.26,North,355,0.0,6.0,74,0.00,,---,0.01,VWS V14.00,2013-05-23 16:37:00,
2013-05-23 11:42:00,41.3,34.3,30.26,SE,127,4.0,12.0,76,0.00,,---,0.01,VWS V14.00,2013-05-23 16:42:00,
2013-05-23 11:47:00,40.9,33.3,30.26,NE,46,3.0,12.0,74,0.00,,---,0.01,VWS V14.00,2013-05-23 16:47:00,
2013-05-23 11:52:00,40.7,33.1,30.26,North,5,5.0,11.0,74,0.00,,---,0.01,VWS V14.00,2013-05-23 16:52:00,
2013-05-23 11:57:00,41.3,34.7,30.26,West,268,0.0,11.0,77,0.00,,---,0.01,VWS V14.00,2013-05-23 16:57:00,
2013-05-23 12:02:00,41.8,33.5,30.26,ENE,58,4.0,11.0,72,0.00,,---,0.01,VWS V14.00,2013-05-23 17:02:00,
2013-05-23 12:07:00,41.9,32.8,30.26,NE,49,3.0,12.0,70,0.00,,---,0.01,VWS V14.00,2013-05-23 17:07:00,
2013-05-23 12:12:00,41.9,34.2,30.27,NE,35,0.0,12.0,74,0.00,,---,0.01,VWS V14.00,2013-05-23 17:12:00,
2013-05-23 12:17:00,42.5,34.8,30.27,NE,36,1.0,12.0,74,0.00,,---,0.01,VWS V14.00,2013-05-23 17:17:00,
2013-05-23 12:22:00,42.6,34.6,30.26,NW,315,2.0,6.0,73,0.00,,---,0.01,VWS V14.00,2013-05-23 17:22:00,
2013-05-23 12:27:00,43.2,34.1,30.26,NE,37,1.0,8.0,70,0.00,,---,0.01,VWS V14.00,2013-05-23 17:27:00,
2013-05-23 12:32:00,43.1,35.0,30.26,West,268,0.0,11.0,73,0.00,,---,0.01,VWS V14.00,2013-05-23 17:32:00,
2013-05-23 12:37:00,43.2,34.1,30.26,East,94,0.0,11.0,70,0.00,,---,0.01,VWS V14.00,2013-05-23 17:37:00,
2013-05-23 12:42:00,43.4,35.0,30.27,NW,315,4.0,14.0,72,0.00,,---,0.01,VWS V14.00,2013-05-23 17:42:00,
2013-05-23 12:47:00,43.6,34.5,30.26,NNW,333,5.0,14.0,70,0.00,,---,0.01,VWS V14.00,2013-05-23 17:47:00,
2013-05-23 12:52:00,43.8,35.0,30.27,NE,34,4.0,13.0,71,0.00,,---,0.01,VWS V14.00,2013-05-23 17:52:00,
2013-05-23 12:57:00,43.8,35.4,30.27,NE,56,0.0,13.0,72,0.00,,---,0.01,VWS V14.00,2013-05-23 17:57:00,
2013-05-23 13:02:00,43.9,33.7,30.27,WNW,298,0.0,13.0,67,0.00,,---,0.01,VWS V14.00,2013-05-23 18:02:00,
2013-05-23 13:07:00,44.2,34.3,30.27,NE,53,3.0,7.0,68,0.00,,---,0.01,VWS V14.00,2013-05-23 18:07:00,
2013-05-23 13:12:00,44.2,35.0,30.27,North,350,1.0,7.0,70,0.00,,---,0.01,VWS V14.00,2013-05-23 18:12:00,
2013-05-23 13:17:00,44.3,35.5,30.27,NE,48,3.0,7.0,71,0.00,,---,0.01,VWS V14.00,2013-05-23 18:17:00,
2013-05-23 13:22:00,44.2,33.6,30.27,NE,38,1.0,13.0,66,0.00,,---,0.01,VWS V14.00,2013-05-23 18:22:00,
2013-05-23 13:27:00,43.9,34.0,30.27,NNW,340,0.0,13.0,68,0.00,,---,0.01,VWS V14.00,2013-05-23 18:27:00,
2013-05-23 13:32:00,44.0,34.9,30.27,NNW,339,5.0,13.0,70,0.00,,---,0.01,VWS V14.00,2013-05-23 18:32:00,
2013-05-23 13:37:00,44.6,34.0,30.27,North,355,1.0,11.0,66,0.00,,---,0.01,VWS V14.00,2013-05-23 18:37:00,
2013-05-23 13:42:00,45.2,34.5,30.27,NE,53,9.0,11.0,66,0.00,,---,0.01,VWS V14.00,2013-05-23 18:42:00,
2013-05-23 13:47:00,45.1,34.4,30.27,NNW,330,2.0,14.0,66,0.00,,---,0.01,VWS V14.00,2013-05-23 18:47:00,
2013-05-23 13:52:00,45.5,35.6,30.27,ENE,59,4.0,10.0,68,0.00,,---,0.01,VWS V14.00,2013-05-23 18:52:00,
2013-05-23 13:57:00,45.7,33.8,30.27,WSW,255,0.0,10.0,63,0.00,,---,0.01,VWS V14.00,2013-05-23 18:57:00,
2013-05-23 14:02:00,45.9,34.0,30.27,NNE,19,9.0,11.0,63,0.00,,---,0.01,VWS V14.00,2013-05-23 19:02:00,
2013-05-23 14:08:00,46.1,33.8,30.27,WNW,302,1.0,9.0,62,0.00,,---,0.01,VWS V14.00,2013-05-23 19:08:00,
2013-05-23 14:13:00,46.5,34.2,30.28,ESE,120,0.0,11.0,62,0.00,,---,0.01,VWS V14.00,2013-05-23 19:13:00,
2013-05-23 14:18:00,47.1,34.8,30.27,NE,38,12.0,13.0,62,0.00,,---,0.01,VWS V14.00,2013-05-23 19:18:00,
2013-05-23 14:23:00,47.0,33.0,30.27,NE,46,3.0,10.0,58,0.00,,---,0.01,VWS V14.00,2013-05-23 19:23:00,
2013-05-23 14:28:00,46.7,32.3,30.28,NNE,32,5.0,12.0,57,0.00,,---,0.01,VWS V14.00,2013-05-23 19:28:00,
2013-05-23 14:33:00,46.3,33.6,30.28,NE,51,8.0,9.0,61,0.00,,---,0.01,VWS V14.00,2013-05-23 19:33:00,
2013-05-23 14:38:00,46.6,32.2,30.28,ENE,59,8.0,10.0,57,0.00,,---,0.01,VWS V14.00,2013-05-23 19:38:00,
2013-05-23 14:43:00,46.5,32.5,30.28,NE,47,5.0,14.0,58,0.00,,---,0.01,VWS V14.00,2013-05-23 19:43:00,
2013-05-23 14:48:00,46.4,32.9,30.28,NW,318,5.0,5.0,59,0.00,,---,0.01,VWS V14.00,2013-05-23 19:48:00,
2013-05-23 14:53:00,46.4,33.3,30.28,NE,46,2.0,14.0,60,0.00,,---,0.01,VWS V14.00,2013-05-23 19:53:00,
2013-05-23 14:58:00,46.8,35.3,30.28,NW,326,0.0,14.0,64,0.00,,---,0.01,VWS V14.00,2013-05-23 19:58:00,
2013-05-23 15:03:00,47.4,35.8,30.28,NE,43,6.0,6.0,64,0.00,,---,0.01,VWS V14.00,2013-05-23 20:03:00,
2013-05-23 15:08:00,47.6,34.0,30.28,NE,51,2.0,7.0,59,0.00,,---,0.01,VWS V14.00,2013-05-23 20:08:00,
2013-05-23 15:13:00,47.7,33.2,30.28,NNE,30,9.0,10.0,57,0.00,,---,0.01,VWS V14.00,2013-05-23 20:13:00,
2013-05-23 15:18:00,47.4,33.0,30.28,NW,325,4.0,4.0,57,0.00,,---,0.01,VWS V14.00,2013-05-23 20:18:00,
2013-05-23 15:23:00,47.7,32.8,30.28,ENE,74,9.0,12.0,56,0.00,,---,0.01,VWS V14.00,2013-05-23 20:23:00,
2013-05-23 15:28:00,47.8,32.9,30.28,NNE,21,2.0,12.0,56,0.00,,---,0.01,VWS V14.00,2013-05-23 20:28:00,
2013-05-23 15:33:00,47.6,30.9,30.29,SE,144,3.0,3.0,52,0.00,,---,0.01,VWS V14.00,2013-05-23 20:33:00,
2013-05-23 15:38:00,47.7,30.5,30.29,NNE,22,1.0,10.0,51,0.00,,---,0.01,VWS V14.00,2013-05-23 20:38:00,
2013-05-23 15:43:00,47.6,31.3,30.29,SSW,211,2.0,10.0,53,0.00,,---,0.01,VWS V14.00,2013-05-23 20:43:00,
2013-05-23 15:48:00,48.1,31.8,30.29,NE,46,4.0,5.0,53,0.00,,---,0.01,VWS V14.00,2013-05-23 20:48:00,
2013-05-23 15:53:00,48.3,33.3,30.29,NNE,19,2.0,10.0,56,0.00,,---,0.01,VWS V14.00,2013-05-23 20:53:00,
2013-05-23 15:58:00,48.3,33.3,30.29,NW,310,2.0,10.0,56,0.00,,---,0.01,VWS V14.00,2013-05-23 20:58:00,
2013-05-23 16:03:00,48.7,32.3,30.29,NW,323,0.0,5.0,53,0.00,,---,0.01,VWS V14.00,2013-05-23 21:03:00,
2013-05-23 16:08:00,48.6,30.8,30.29,NE,52,1.0,9.0,50,0.00,,---,0.01,VWS V14.00,2013-05-23 21:08:00,
2013-05-23 16:13:00,48.1,30.8,30.30,North,360,0.0,9.0,51,0.00,,---,0.01,VWS V14.00,2013-05-23 21:13:00,
2013-05-23 16:18:00,48.3,32.9,30.30,WNW,302,1.0,3.0,55,0.00,,---,0.01,VWS V14.00,2013-05-23 21:18:00,
2013-05-23 16:23:00,48.7,32.3,30.29,NE,41,9.0,11.0,53,0.00,,---,0.01,VWS V14.00,2013-05-23 21:23:00,
2013-05-23 16:28:00,48.6,32.7,30.30,NNW,334,0.0,11.0,54,0.00,,---,0.01,VWS V14.00,2013-05-23 21:28:00,
2013-05-23 16:33:00,48.9,33.0,30.30,ENE,67,3.0,6.0,54,0.00,,---,0.01,VWS V14.00,2013-05-23 21:33:00,
2013-05-23 16:38:00,48.9,32.1,30.30,NE,48,1.0,7.0,52,0.00,,---,0.01,VWS V14.00,2013-05-23 21:38:00,
2013-05-23 16:43:00,48.6,31.3,30.30,North,355,5.0,10.0,51,0.00,,---,0.01,VWS V14.00,2013-05-23 21:43:00,
2013-05-23 16:48:00,48.3,30.5,30.30,NNW,337,2.0,2.0,50,0.00,,---,0.01,VWS V14.00,2013-05-23 21:48:00,
2013-05-23 16:53:00,48.5,32.2,30.30,NE,38,5.0,11.0,53,0.00,,---,0.01,VWS V14.00,2013-05-23 21:53:00,
2013-05-23 16:58:00,48.5,29.7,30.30,WNW,290,5.0,11.0,48,0.00,,---,0.01,VWS V14.00,2013-05-23 21:58:00,
2013-05-23 17:03:00,48.3,31.0,30.30,NW,319,4.0,6.0,51,0.00,,---,0.01,VWS V14.00,2013-05-23 22:03:00,
2013-05-23 17:08:00,48.3,30.5,30.31,West,280,3.0,7.0,50,0.00,,---,0.01,VWS V14.00,2013-05-23 22:08:00,
2013-05-23 17:13:00,48.2,30.5,30.30,SW,224,0.0,8.0,50,0.00,,---,0.01,VWS V14.00,2013-05-23 22:13:00,
2013-05-23 17:18:00,48.5,30.7,30.30,NW,305,2.0,4.0,50,0.00,,---,0.01,VWS V14.00,2013-05-23 22:18:00,
2013-05-23 17:23:00,48.6,30.8,30.30,NW,320,1.0,11.0,50,0.00,,---,0.01,VWS V14.00,2013-05-23 22:23:00,
2013-05-23 17:28:00,48.5,31.2,30.30,NW,326,0.0,11.0,51,0.00,,---,0.02,VWS V14.00,2013-05-23 22:28:00,
2013-05-23 17:33:00,48.5,31.7,30.30,NNE,33,1.0,4.0,52,0.00,,---,0.02,VWS V14.00,2013-05-23 22:33:00,
2013-05-23 17:38:00,48.7,32.3,30.30,NE,40,2.0,12.0,53,0.00,,---,0.02,VWS V14.00,2013-05-23 22:38:00,
2013-05-23 17:43:00,48.8,31.0,30.31,NNW,329,0.0,12.0,50,0.00,,---,0.02,VWS V14.00,2013-05-23 22:43:00,
2013-05-23 17:48:00,48.8,31.0,30.31,NW,315,2.0,2.0,50,0.00,,---,0.02,VWS V14.00,2013-05-23 22:48:00,
2013-05-23 17:53:00,48.9,31.1,30.31,NNE,22,0.0,4.0,50,0.00,,---,0.02,VWS V14.00,2013-05-23 22:53:00,
2013-05-23 17:58:00,49.1,32.2,30.31,SW,223,0.0,6.0,52,0.00,,---,0.02,VWS V14.00,2013-05-23 22:58:00,
2013-05-23 18:03:00,49.5,31.6,30.31,NE,45,3.0,4.0,50,0.00,,---,0.02,VWS V14.00,2013-05-23 23:03:00,
2013-05-23 18:08:00,49.2,30.4,30.31,NNE,26,3.0,10.0,48,0.00,,---,0.02,VWS V14.00,2013-05-23 23:08:00,
2013-05-23 18:13:00,48.8,31.5,30.31,NE,36,2.0,11.0,51,0.00,,---,0.02,VWS V14.00,2013-05-23 23:13:00,
2013-05-23 18:18:00,48.9,31.1,30.32,NE,36,0.0,0.0,50,0.00,,---,0.02,VWS V14.00,2013-05-23 23:18:00,
2013-05-23 18:23:00,48.8,31.0,30.32,ENE,63,3.0,7.0,50,0.00,,---,0.02,VWS V14.00,2013-05-23 23:23:00,
2013-05-23 18:28:00,48.5,29.7,30.32,NE,40,3.0,10.0,48,0.00,,---,0.02,VWS V14.00,2013-05-23 23:28:00,
2013-05-23 18:33:00,48.3,30.5,30.32,NE,41,1.0,1.0,50,0.00,,---,0.02,VWS V14.00,2013-05-23 23:33:00,
2013-05-23 18:38:00,48.5,30.7,30.32,ENE,78,0.0,4.0,50,0.00,,---,0.02,VWS V14.00,2013-05-23 23:38:00,
2013-05-23 18:43:00,48.7,30.4,30.32,NE,46,0.0,5.0,49,0.00,,---,0.02,VWS V14.00,2013-05-23 23:43:00,
2013-05-23 18:48:00,48.7,29.9,30.32,NE,34,1.0,5.0,48,0.00,,---,0.02,VWS V14.00,2013-05-23 23:48:00,
2013-05-23 18:53:00,48.3,30.0,30.32,North,5,2.0,9.0,49,0.00,,---,0.02,VWS V14.00,2013-05-23 23:53:00,
2013-05-23 18:58:00,48.2,30.5,30.32,NE,37,2.0,10.0,50,0.00,,---,0.02,VWS V14.00,2013-05-23 23:58:00,
2013-05-23 19:03:00,48.0,30.3,30.32,NNW,344,0.0,0.0,50,0.00,,---,0.02,VWS V14.00,2013-05-24 00:03:00,
2013-05-23 19:08:00,48.1,30.8,30.32,North,355,0.0,9.0,51,0.00,,---,0.02,VWS V14.00,2013-05-24 00:08:00,
2013-05-23 19:13:00,48.0,29.8,30.32,NE,35,0.0,9.0,49,0.00,,---,0.02,VWS V14.00,2013-05-24 00:13:00,
2013-05-23 19:18:00,47.7,30.5,30.32,NW,325,0.0,0.0,51,0.00,,---,0.02,VWS V14.00,2013-05-24 00:18:00,
2013-05-23 19:23:00,47.5,30.3,30.32,ENE,68,0.0,4.0,51,0.00,,---,0.02,VWS V14.00,2013-05-24 00:23:00,
2013-05-23 19:28:00,47.4,29.7,30.32,NE,42,0.0,4.0,50,0.00,,---,0.02,VWS V14.00,2013-05-24 00:28:00,
2013-05-23 19:33:00,47.2,29.5,30.32,NE,47,3.0,4.0,50,0.00,,---,0.02,VWS V14.00,2013-05-24 00:33:00,
2013-05-23 19:38:00,46.9,29.7,30.32,NE,45,3.0,9.0,51,0.00,,---,0.02,VWS V14.00,2013-05-24 00:38:00,
2013-05-23 19:43:00,46.6,29.5,30.32,North,5,1.0,9.0,51,0.00,,---,0.02,VWS V14.00,2013-05-24 00:43:00,
2013-05-23 19:48:00,46.3,29.2,30.32,NE,50,4.0,4.0,51,0.00,,---,0.02,VWS V14.00,2013-05-24 00:48:00,
2013-05-23 19:53:00,46.0,28.9,30.32,NE,43,0.0,9.0,51,0.00,,---,0.02,VWS V14.00,2013-05-24 00:53:00,
2013-05-23 19:58:00,45.8,29.2,30.32,NE,43,0.0,9.0,52,0.00,,---,0.02,VWS V14.00,2013-05-24 00:58:00,
2013-05-23 20:03:00,45.6,29.5,30.32,NE,43,0.0,0.0,53,0.00,,---,0.02,VWS V14.00,2013-05-24 01:03:00,
2013-05-23 20:08:00,45.2,29.6,30.32,NE,43,0.0,2.0,54,0.00,,---,0.02,VWS V14.00,2013-05-24 01:08:00,
2013-05-23 20:13:00,44.9,29.7,30.32,NNE,26,0.0,4.0,55,0.00,,---,0.02,VWS V14.00,2013-05-24 01:13:00,
2013-05-23 20:18:00,44.7,29.5,30.33,NNE,26,0.0,1.0,55,0.00,,---,0.02,VWS V14.00,2013-05-24 01:18:00,
2013-05-23 20:23:00,44.4,29.7,30.33,NNE,27,0.0,2.0,56,0.00,,---,0.02,VWS V14.00,2013-05-24 01:23:00,
2013-05-23 20:28:00,44.2,30.4,30.33,NNE,28,0.0,4.0,58,0.00,,---,0.02,VWS V14.00,2013-05-24 01:28:00,
2013-05-23 20:33:00,43.9,29.7,30.33,NNE,28,0.0,0.0,57,0.00,,---,0.02,VWS V14.00,2013-05-24 01:33:00,
2013-05-23 20:38:00,43.6,30.2,30.33,NNE,28,0.0,0.0,59,0.00,,---,0.02,VWS V14.00,2013-05-24 01:38:00,
2013-05-23 20:43:00,43.2,30.7,30.33,NNE,28,0.0,0.0,61,0.00,,---,0.02,VWS V14.00,2013-05-24 01:43:00,
2013-05-23 20:48:00,42.7,30.6,30.33,NNE,28,0.0,0.0,62,0.00,,---,0.02,VWS V14.00,2013-05-24 01:48:00,
2013-05-23 20:53:00,42.3,30.6,30.33,NNE,28,0.0,0.0,63,0.00,,---,0.02,VWS V14.00,2013-05-24 01:53:00,
2013-05-23 20:58:00,41.8,30.5,30.33,NNE,28,0.0,0.0,64,0.00,,---,0.02,VWS V14.00,2013-05-24 01:58:00,
2013-05-23 21:03:00,41.4,30.9,30.33,NNE,28,0.0,0.0,66,0.00,,---,0.02,VWS V14.00,2013-05-24 02:03:00,
2013-05-23 21:08:00,41.0,30.9,30.33,NNE,28,0.0,0.0,67,0.00,,---,0.02,VWS V14.00,2013-05-24 02:08:00,
2013-05-23 21:13:00,40.7,31.0,30.34,NNE,28,0.0,0.0,68,0.00,,---,0.02,VWS V14.00,2013-05-24 02:13:00,
2013-05-23 21:18:00,40.3,31.0,30.34,NNE,28,0.0,0.0,69,0.00,,---,0.02,VWS V14.00,2013-05-24 02:18:00,
2013-05-23 21:23:00,39.9,30.9,30.34,NNE,28,0.0,0.0,70,0.00,,---,0.02,VWS V14.00,2013-05-24 02:23:00,
2013-05-23 21:28:00,39.6,31.0,30.34,NNE,28,0.0,0.0,71,0.00,,---,0.02,VWS V14.00,2013-05-24 02:28:00,
2013-05-23 21:33:00,39.2,30.6,30.34,NNE,28,0.0,0.0,71,0.00,,---,0.02,VWS V14.00,2013-05-24 02:33:00,
2013-05-23 21:38:00,38.8,30.6,30.34,NNE,28,0.0,0.0,72,0.00,,---,0.02,VWS V14.00,2013-05-24 02:38:00,
2013-05-23 21:43:00,38.5,30.6,30.34,NNE,28,0.0,0.0,73,0.00,,---,0.02,VWS V14.00,2013-05-24 02:43:00,
2013-05-23 21:48:00,38.2,30.7,30.34,NNE,28,0.0,0.0,74,0.00,,---,0.02,VWS V14.00,2013-05-24 02:48:00,
2013-05-23 21:53:00,37.9,30.4,30.34,NNE,28,0.0,0.0,74,0.00,,---,0.02,VWS V14.00,2013-05-24 02:53:00,
2013-05-23 21:58:00,37.6,30.4,30.35,NNE,28,0.0,0.0,75,0.00,,---,0.02,VWS V14.00,2013-05-24 02:58:00,
2013-05-23 22:03:00,37.4,31.5,30.35,NNE,28,0.0,0.0,79,0.00,,---,0.02,VWS V14.00,2013-05-24 03:03:00,
2013-05-23 22:08:00,37.2,31.3,30.35,NNE,28,0.0,0.0,79,0.00,,---,0.02,VWS V14.00,2013-05-24 03:08:00,
2013-05-23 22:13:00,37.0,31.1,30.35,NNE,28,0.0,0.0,79,0.00,,---,0.02,VWS V14.00,2013-05-24 03:13:00,
2013-05-23 22:18:00,36.8,30.9,30.35,NNE,28,0.0,0.0,79,0.00,,---,0.02,VWS V14.00,2013-05-24 03:18:00,
2013-05-23 22:23:00,36.6,30.7,30.35,NNE,28,0.0,0.0,79,0.00,,---,0.02,VWS V14.00,2013-05-24 03:23:00,
2013-05-23 22:28:00,36.4,31.1,30.35,NNE,28,0.0,0.0,81,0.00,,---,0.02,VWS V14.00,2013-05-24 03:28:00,
2013-05-23 22:33:00,36.2,30.6,30.35,NNE,28,0.0,0.0,80,0.00,,---,0.02,VWS V14.00,2013-05-24 03:33:00,
2013-05-23 22:38:00,36.0,30.4,30.35,NNE,28,0.0,0.0,80,0.00,,---,0.02,VWS V14.00,2013-05-24 03:38:00,
2013-05-23 22:43:00,35.8,30.5,30.35,NNE,28,0.0,0.0,81,0.00,,---,0.02,VWS V14.00,2013-05-24 03:43:00,
2013-05-23 22:48:00,35.6,30.0,30.35,NNE,28,0.0,0.0,80,0.00,,---,0.02,VWS V14.00,2013-05-24 03:48:00,
2013-05-23 22:53:00,35.5,30.0,30.35,NNE,28,0.0,0.0,80,0.00,,---,0.02,VWS V14.00,2013-05-24 03:53:00,
2013-05-23 22:58:00,35.2,30.0,30.35,NNE,28,0.0,0.0,81,0.00,,---,0.02,VWS V14.00,2013-05-24 03:58:00,
2013-05-23 23:01:00,35.1,30.2,30.35,NNE,28,0.0,0.0,82,0.00,,---,0.02,VWS V14.00,2013-05-24 04:01:00,
2013-05-23 23:06:00,34.9,30.0,30.35,NNE,28,0.0,0.0,82,0.00,,---,0.02,VWS V14.00,2013-05-24 04:06:00,
2013-05-23 23:11:00,34.7,29.8,30.35,NNE,28,0.0,0.0,82,0.00,,---,0.02,VWS V14.00,2013-05-24 04:11:00,
2013-05-23 23:16:00,34.4,29.8,30.35,NNE,28,0.0,0.0,83,0.00,,---,0.02,VWS V14.00,2013-05-24 04:16:00,
2013-05-23 23:21:00,34.2,29.3,30.35,NNE,28,0.0,0.0,82,0.00,,---,0.02,VWS V14.00,2013-05-24 04:21:00,
2013-05-23 23:26:00,34.1,29.8,30.35,NNE,28,0.0,0.0,84,0.00,,---,0.02,VWS V14.00,2013-05-24 04:26:00,
2013-05-23 23:31:00,33.9,29.6,30.35,NNE,28,0.0,0.0,84,0.00,,---,0.02,VWS V14.00,2013-05-24 04:31:00,
2013-05-23 23:36:00,33.9,29.9,30.35,NNE,28,0.0,0.0,85,0.00,,---,0.02,VWS V14.00,2013-05-24 04:36:00,
2013-05-23 23:41:00,33.8,29.8,30.35,NNE,28,0.0,0.0,85,0.00,,---,0.02,VWS V14.00,2013-05-24 04:41:00,
2013-05-23 23:46:00,33.7,29.7,30.35,NNE,28,0.0,0.0,85,0.00,,---,0.02,VWS V14.00,2013-05-24 04:46:00,
2013-05-23 23:51:00,33.5,29.5,30.35,NNE,28,0.0,0.0,85,0.00,,---,0.02,VWS V14.00,2013-05-24 04:51:00,
2013-05-23 23:56:00,33.4,29.4,30.36,NNE,28,0.0,0.0,85,0.00,,---,0.02,VWS V14.00,2013-05-24 04:56:00,